Location: ??????????
(48.4699°N, 37.9573°E)
Time: 12:56:48
(UTC+00:00)

CZ-2D R/B - Pass Details

Date: 20 January 2021
Orbit: 520 x 538 km, 97.4° (Epoch: 26 February)

Event Time Altitude Azimuth Distance (km) Brightness Sun altitude
Rises 15:15:08 0° 154° (SSE) 2,674 6.7 -11.0°
Reaches altitude 10° 15:17:17 10° 149° (SSE) 1,786 5.8 -11.3°
Maximum altitude 15:21:02 53° 73° (ENE) 660 3.3 -11.9°
Drops below altitude 10° 15:24:49 10° 356° (N) 1,791 5.8 -12.5°
Sets 15:26:57 0° 352° (N) 2,683 6.8 -12.8°
